Regional Weather Roundup
Issued by NWS

Home | Current Version | Previous Version | Graphics & Text | Print | Product List | Glossary On
Versions: 1 2 3 4 5 6 7 8 9 10 11 12 13 14 15 16 17 18 19 20 21 22 23 24 25 26 27 28 29 30 31 32 33 34 35 36 37 38 39 40 41 42 43 44 45 46 47 48 49 50
000
ASUS43 KMKX 260400
RWRWI

WISCONSIN REGIONAL WEATHER ROUNDUP
NATIONAL WEATHER SERVICE MILWAUKEE/SULLIVAN WI
1000 PM CST THU DEC 25 2014

NOTE: "FAIR" INDICATES FEW OR NO CLOUDS BELOW 12,000 FEET WITH NO
SIGNIFICANT WEATHER AND/OR OBSTRUCTIONS TO VISIBILITY.

WIZ001-002-006>008-014>016-023>028-260500-
NORTHWEST WISCONSIN

CITY           SKY/WX    TMP DP  RH WIND       PRES   REMARKS
SUPERIOR ARPT  CLOUDY    32  29  88 CALM      29.90R
ASHLAND        CLOUDY    32  29  88 S3        29.91R
HAYWARD        LGT SNOW  30  29  96 CALM      29.88S VSB 3/4
SIREN          LGT SNOW  31  31  99 CALM      29.88S
CUMBERLAND     CLOUDY    30  30 100 NE3       29.86S FOG
RICE LAKE      CLOUDY    32  31  97 CALM      29.89R FOG
CHETEK         CLOUDY    31  30  95 CALM      29.87S
LADYSMITH      CLOUDY    32  31  96 CALM      29.89S FOG
EAU CLAIRE     NOT AVBL
MENOMONIE      CLOUDY    31  30  94 CALM      29.87R FOG
NEW RICHMOND   MOCLDY    31  31 100 NE3       29.87R FOG
OSCEOLA        CLOUDY    32  32 100 CALM      29.90R FOG
$$

WIZ003>005-009-010-017-018-260500-
NORTH CENTRAL WISCONSIN

CITY           SKY/WX    TMP DP  RH WIND       PRES   REMARKS
MANITOWISH WTR LGT SNOW  29  29 100 CALM      29.87R
ARBOR VITAE    LGT SNOW  32  31  95 CALM      29.88R
WOODRUFF       LGT SNOW  32  31  95 CALM      29.88R
RHINELANDER    CLOUDY    29  28  96 CALM      29.88R FOG
EAGLE RIVER    LGT SNOW  29  29 100 CALM      29.88R
LAND O LAKES   LGT SNOW  30  30  99 CALM      29.88R
PHILLIPS       MIX PCPN  29  29 100 CALM      29.87S
TOMAHAWK       CLOUDY    29  28  95 CALM      29.88S FOG
MEDFORD        CLOUDY    29  27  93 CALM      29.86S
MERRILL        MOCLDY    28  28 100 CALM      29.88S FOG
$$

WIZ029-030-035-036-043>047-260500-
CENTRAL WISCONSIN

CITY           SKY/WX    TMP DP  RH WIND       PRES   REMARKS
WAUSAU         MOCLDY    29  27  92 SE3       29.88S
MOSINEE        CLEAR     28  28 100 E3        29.89S
MARSHFIELD     MOCLDY    29  26  89 E5        29.87R WCI  24
STEVENS POINT  MOCLDY    28  27  96 NE3       29.90R
WAUPACA        CLOUDY    31  29  95 CALM      29.92R FOG
WAUTOMA        NOT AVBL
WISC RAPIDS    MOCLDY    29  27  92 CALM      29.90R
CAMP DOUGLAS   NOT AVBL
$$

WIZ011>013-019>022-031-037>040-048>050-260500-
NORTHEAST WISCONSIN

CITY           SKY/WX    TMP DP  RH WIND       PRES   REMARKS
ANTIGO         CLOUDY    27  27 100 CALM      29.88R FOG
SHAWANO        MOCLDY    32  30  93 CALM      29.93R FOG
OCONTO         MOCLDY    29  29 100 CALM      29.93R
STURGEON BAY   MOCLDY    34  28  80 S6        29.96R WCI  29
GREEN BAY      CLOUDY    32  31  96 CALM      29.93R
MANITOWOC      NOT AVBL
APPLETON       PTCLDY    32  30  93 VRB3      29.92R
CLINTONVILLE   CLOUDY    30  30 100 CALM      29.91S
OSHKOSH        MOCLDY    36  32  85 S8        29.92R WCI  30
$$

WIZ032>034-041-042-053>061-260500-
SOUTHWEST WISCONSIN

CITY           SKY/WX    TMP DP  RH WIND       PRES   REMARKS
LA CROSSE      MOCLDY    31  28  89 CALM      29.86S
SPARTA         MOCLDY    29  28  99 CALM      29.88R
VIROQUA        MOCLDY    37  33  89 S9        29.85S WCI  30
BOSCOBEL       MOCLDY    32  29  88 CALM      29.89S
PRAIRIE DU CHI PTCLDY    41  31  66 SE8       29.87S
PLATTEVILLE    PTCLDY    37  33  83 CALM      29.90S
$$

WIZ056-057-062-063-064-067-068-260500-
SOUTH CENTRAL WISCONSIN

CITY           SKY/WX    TMP DP  RH WIND       PRES   REMARKS
REEDSBURG      MOCLDY    38  33  80 S8        29.88S WCI  32
BARABOO/DELLS  MOCLDY    38  32  77 S9        29.89R WCI  32
LONE ROCK      NOT AVBL
MINERAL POINT  MOCLDY    37  32  81 SE8       29.89S WCI  31
MADISON        CLOUDY    39  33  79 S9        29.92R WCI  33
MIDDLETON      CLOUDY    40  33  77 S6        29.91S
WATERTOWN      PTCLDY    38  35  90 S9        29.93R WCI  31
MONROE         MOCLDY    37  34  87 S17       29.91R WCI  28
JANESVILLE     MOCLDY    41  34  75 S16G22    29.93S
$$

WIZ051-052-058>065-066-070>072-260500-
SOUTHEAST WISCONSIN

CITY           SKY/WX    TMP DP  RH WIND       PRES   REMARKS
MILWAUKEE      CLOUDY    40  33  76 SW10      29.97R WCI  33
WAUKESHA       PTCLDY    36  32  87 S10G16    29.96R WCI  28
MILWAUKEE/TIMM MOCLDY    37  32  81 SW10G17   29.97R WCI  30
RACINE         CLOUDY    41  34  76 SW12      30.00R
BURLINGTON     MOCLDY    38  33  82 S12       29.97R WCI  30
KENOSHA        CLOUDY    41  34  76 SW14G23   29.98R
FOND DU LAC    MOCLDY    38  32  79 S13       29.92R WCI  30
SHEBOYGAN      MOCLDY    35  31  85 S8        29.94R WCI  29
WEST BEND      FAIR      37  32  81 S9        29.94R WCI  31
JUNEAU         FAIR      37  33  87 S13       29.94R WCI  28
$$

LSZ147-162-260500-
LAKE SUPERIOR

STATION/POSITION TIME  TEMP    WIND        PRES    WAVE
                       AIR SEA DIR/SP/G            HT/PER
                 (UTC) (F)     (DEG/KT/KT) (MB)    (FT/S)
DEVILS ISLAND    0300   35     320/  9/ 11 1012.6R
PORT WING        0300   33     190/  4/  5 1012.5R
SAXON HARBOR     0340   33     190/  2/  4 1012.9R
$$

LMZ867-665-643>646-260500-
LAKE MICHIGAN

STATION/POSITION TIME  TEMP    WIND        PRES    WAVE
                       AIR SEA DIR/SP/G            HT/PER
                 (UTC) (F)     (DEG/KT/KT) (MB)    (FT/S)
CHAMBERS ISLAND  0300   35     180/  3/  6 1013.9R
NORTHPORT PIER   0300   33     180/  2/  3 1013.9R
SISTER BAY       0228          180/  3/  6   N/A
ALGOMA LAKESHORE 0314             CALM       N/A
KEWAUNEE LAKESHO 0300   36     180/  1/  3 1012.6S
SHEBOYGAN LAKESH 0300   40 37  200/ 15/ 20 1013.9R
PORT WASHINGTON  0300   40     200/  7/ 11 1014.6
MILWAUKEE LAKESH 0300   41     210/ 12/ 17   N/A
KENOSHA   LAKESH 0300   42     200/ 14/ 18 1014.6S
$$

TC  - TEMPERATURE IN CELSIUS
VSB - VISIBILITY IN STATUTE MILES
WCI - WIND CHILL INDEX
HX  - HEAT INDEX




USA.gov is the U.S. government's official web portal to all federal, state and local government web resources and services.